,,,PA_Meas_PMT16A,,PR_Meas_QMR101_102,,RH_Meas_QMH101,,SR_Meas_QMS101,,TA_Meas_QMH101,,GenWind,,GenWind,
date,time,status,PA,status,PR,status,RH,status,SR,status,TA,status,DirAvg,status,SpdAvg,
2011-06-18, 00:00:04,VALID,1001.13,VALID,0,VALID,65.569,VALID,0,VALID,27.3891,VALID,175,VALID,4.05156,
2011-06-18, 00:01:04,VALID,1001.14,VALID,0,VALID,65.5384,VALID,0,VALID,27.4086,VALID,190,VALID,3.3375,
2011-06-18, 00:02:04,VALID,1001.1,VALID,0,VALID,65.7673,VALID,0,VALID,27.4086,VALID,179,VALID,4.84648,
2011-06-18, 00:03:04,VALID,1001.12,VALID,0,VALID,66.5227,VALID,0,VALID,27.2719,VALID,171,VALID,3.72617,
2011-06-18, 00:04:04,VALID,1001.12,VALID,0,VALID,66.721,VALID,0,VALID,27.1743,VALID,173,VALID,3.23281,
2011-06-18, 00:05:04,VALID,1001.1,VALID,0,VALID,66.2709,VALID,0,VALID,27.1743,VALID,177,VALID,3.73945,
2011-06-18, 00:06:04,VALID,1001.05,VALID,0,VALID,66.7592,VALID,0,VALID,27.1743,VALID,174,VALID,3.3082,
2011-06-18, 00:07:04,VALID,1001.04,VALID,0,VALID,67.1483,VALID,0,VALID,27.1352,VALID,161,VALID,4.23477,
2011-06-18, 00:08:04,VALID,1000.99,VALID,0,VALID,66.3548,VALID,0,VALID,27.1743,VALID,173,VALID,6.20586,
2011-06-18, 00:09:04,VALID,1001.02,VALID,0,VALID,66.5608,VALID,0,VALID,27.2329,VALID,174,VALID,3.56914,
2011-06-18, 00:10:04,VALID,1000.96,VALID,0,VALID,66.4464,VALID,0,VALID,27.2524,VALID,167,VALID,4.62656,
2011-06-18, 00:11:04,VALID,1000.97,VALID,0,VALID,66.5608,VALID,0,VALID,27.2133,VALID,170,VALID,4.02148,
2011-06-18, 00:12:04,VALID,1000.95,VALID,0,VALID,66.7363,VALID,0,VALID,27.1743,VALID,171,VALID,3.54219,
2011-06-18, 00:13:04,VALID,1000.92,VALID,0,VALID,66.5379,VALID,0,VALID,27.1938,VALID,182,VALID,4.13047,
2011-06-18, 00:14:04,VALID,1000.91,VALID,0,VALID,66.8355,VALID,0,VALID,27.1743,VALID,171,VALID,3.2332,
2011-06-18, 00:15:04,VALID,1000.87,VALID,0,VALID,67.2246,VALID,0,VALID,27.1157,VALID,168,VALID,2.79414,
2011-06-18, 00:16:04,VALID,1000.8,VALID,0,VALID,67.5527,VALID,0,VALID,27.0375,VALID,163,VALID,2.85664,
2011-06-18, 00:17:04,VALID,1000.81,VALID,0,VALID,68.0486,VALID,0,VALID,26.9399,VALID,170,VALID,2.58281,
2011-06-18, 00:18:04,VALID,1000.78,VALID,0,VALID,67.0186,VALID,0,VALID,26.9985,VALID,171,VALID,4.95078,
2011-06-18, 00:19:04,VALID,1000.79,VALID,0,VALID,66.6676,VALID,0,VALID,27.0961,VALID,176,VALID,4.03477,
2011-06-18, 00:20:04,VALID,1000.81,VALID,0,VALID,66.5303,VALID,0,VALID,27.1547,VALID,177,VALID,3.7293,
2011-06-18, 00:21:04,VALID,1000.83,VALID,0,VALID,67.0415,VALID,0,VALID,27.1547,VALID,187,VALID,2.79492,
2011-06-18, 00:22:04,VALID,1000.81,VALID,0,VALID,66.7134,VALID,0,VALID,27.1547,VALID,176,VALID,2.9332,
2011-06-18, 00:23:04,VALID,1000.75,VALID,0,VALID,67.2398,VALID,0,VALID,27.1352,VALID,194,VALID,2.52852,
2011-06-18, 00:24:04,VALID,1000.7,VALID,0,VALID,66.7973,VALID,0,VALID,27.1373,VALID,190,VALID,2.9875,
2011-06-18, 00:25:04,VALID,1000.72,VALID,0,VALID,66.9118,VALID,0,VALID,27.1547,VALID,182,VALID,3.39297,
2011-06-18, 00:26:04,VALID,1000.67,VALID,0,VALID,66.4845,VALID,0,VALID,27.1547,VALID,181,VALID,3.42695,
2011-06-18, 00:27:04,VALID,1000.66,VALID,0,VALID,67.1559,VALID,0,VALID,27.1157,VALID,162,VALID,3.55586,
2011-06-18, 00:28:04,VALID,1000.63,VALID,0,VALID,67.4916,VALID,0,VALID,27.0375,VALID,160,VALID,2.85078,
2011-06-18, 00:29:04,VALID,1000.61,VALID,0,VALID,67.5221,VALID,0,VALID,26.9594,VALID,164,VALID,3.66172,
2011-06-18, 00:30:04,VALID,1000.61,VALID,0,VALID,67.2093,VALID,0,VALID,27.0396,VALID,169,VALID,5.19414,
2011-06-18, 00:31:04,VALID,1000.63,VALID,0,VALID,67.3695,VALID,0,VALID,27.0375,VALID,161,VALID,4.32852,
2011-06-18, 00:32:04,VALID,1000.58,VALID,0,VALID,66.3167,VALID,0,VALID,27.1352,VALID,183,VALID,5.45117,
2011-06-18, 00:33:04,VALID,1000.59,VALID,0,VALID,66.4082,VALID,0,VALID,27.2329,VALID,190,VALID,4.8793,
2011-06-18, 00:34:04,VALID,1000.56,VALID,0,VALID,65.9275,VALID,0,VALID,27.2524,VALID,192,VALID,4.49531,
2011-06-18, 00:35:04,VALID,1000.58,VALID,0,VALID,66.0649,VALID,0,VALID,27.274,VALID,167,VALID,5.7168,
2011-06-18, 00:36:04,VALID,1000.6,VALID,0,VALID,66.5074,VALID,0,VALID,27.1938,VALID,176,VALID,4.72383,
2011-06-18, 00:37:04,VALID,1000.58,VALID,0,VALID,66.4845,VALID,0,VALID,27.1352,VALID,172,VALID,5.54219,
2011-06-18, 00:38:04,VALID,1000.59,VALID,0,VALID,66.6295,VALID,0,VALID,27.1157,VALID,167,VALID,5.24961,
2011-06-18, 00:39:04,VALID,1000.63,VALID,0,VALID,66.9728,VALID,0,VALID,27.0766,VALID,176,VALID,3.57891,
2011-06-18, 00:40:04,VALID,1000.58,VALID,0,VALID,67.3695,VALID,0,VALID,27.0375,VALID,173,VALID,2.94453,
2011-06-18, 00:41:04,VALID,1000.54,VALID,0,VALID,67.0949,VALID,0,VALID,26.9985,VALID,180,VALID,4.41719,
2011-06-18, 00:42:04,VALID,1000.53,VALID,0,VALID,66.7897,VALID,0,VALID,27.0201,VALID,175,VALID,3.8207,
2011-06-18, 00:43:04,VALID,1000.48,VALID,0,VALID,66.7287,VALID,0,VALID,27.018,VALID,178,VALID,5.92656,
2011-06-18, 00:44:04,VALID,1000.54,VALID,0,VALID,66.7592,VALID,0,VALID,27.0766,VALID,183,VALID,3.55391,
2011-06-18, 00:45:04,VALID,1000.49,VALID,0,VALID,66.6524,VALID,0,VALID,27.1157,VALID,184,VALID,4.49844,
2011-06-18, 00:46:04,VALID,1000.45,VALID,0,VALID,66.7363,VALID,0,VALID,27.1157,VALID,181,VALID,4.20039,
2011-06-18, 00:47:04,VALID,1000.45,VALID,0,VALID,66.7134,VALID,0,VALID,27.0982,VALID,169,VALID,4.05859,
2011-06-18, 00:48:04,VALID,1000.46,VALID,0,VALID,67.1712,VALID,0,VALID,27.0375,VALID,176,VALID,4.26914,
2011-06-18, 00:49:04,VALID,1000.44,VALID,0,VALID,67.2475,VALID,0,VALID,26.9985,VALID,178,VALID,3.81016,
2011-06-18, 00:50:04,VALID,1000.38,VALID,0,VALID,66.6295,VALID,0,VALID,27.0396,VALID,173,VALID,3.70937,
2011-06-18, 00:51:04,VALID,1000.4,VALID,0,VALID,67.2704,VALID,0,VALID,27.018,VALID,195,VALID,3.2918,
2011-06-18, 00:52:04,VALID,1000.4,VALID,0,VALID,67.011,VALID,0,VALID,27.0201,VALID,182,VALID,3.02031,
2011-06-18, 00:53:04,VALID,1000.37,VALID,0,VALID,66.2709,VALID,0,VALID,26.9985,VALID,160,VALID,3.92773,
2011-06-18, 00:54:04,VALID,1000.37,VALID,0,VALID,66.2785,VALID,0,VALID,27.018,VALID,182,VALID,3.25078,
2011-06-18, 00:55:04,VALID,1000.36,VALID,0,VALID,64.9433,VALID,0,VALID,27.018,VALID,187,VALID,3.6168,
2011-06-18, 00:56:04,VALID,1000.36,VALID,0,VALID,64.333,VALID,0,VALID,27.0982,VALID,179,VALID,5.13008,
2011-06-18, 00:57:04,VALID,1000.33,VALID,0,VALID,63.7531,VALID,0,VALID,27.1959,VALID,186,VALID,4.89297,
2011-06-18, 00:58:04,VALID,1000.33,VALID,0,VALID,63.425,VALID,0,VALID,27.274,VALID,179,VALID,4.78828,
2011-06-18, 00:59:04,VALID,1000.35,VALID,0,VALID,63.8447,VALID,0,VALID,27.2545,VALID,174,VALID,4.95195,
2011-06-18, 01:00:04,VALID,1000.38,VALID,0,VALID,64.2719,VALID,0,VALID,27.1568,VALID,171,VALID,4.33633,
2011-06-18, 01:01:04,VALID,1000.36,VALID,0,VALID,63.4479,VALID,0,VALID,27.1157,VALID,173,VALID,4.30664,
2011-06-18, 01:02:04,VALID,1000.36,VALID,0,VALID,63.3106,VALID,0,VALID,27.2329,VALID,191,VALID,3.64531,
2011-06-18, 01:03:04,VALID,1000.33,VALID,0,VALID,63.6234,VALID,0,VALID,27.274,VALID,176,VALID,2.62305,
2011-06-18, 01:04:04,VALID,1000.32,VALID,0,VALID,63.8599,VALID,0,VALID,27.1743,VALID,171,VALID,3.72734,
2011-06-18, 01:05:04,VALID,1000.31,VALID,0,VALID,64.3253,VALID,0,VALID,27.0961,VALID,173,VALID,2.91289,
2011-06-18, 01:06:04,VALID,1000.27,VALID,0,VALID,63.6081,VALID,0,VALID,27.0787,VALID,180,VALID,4.8168,
2011-06-18, 01:07:04,VALID,1000.2,VALID,0,VALID,63.0436,VALID,0,VALID,27.1547,VALID,169,VALID,4.36328,
2011-06-18, 01:08:04,VALID,1000.22,VALID,0,VALID,63.6234,VALID,0,VALID,27.1938,VALID,184,VALID,3.01484,
2011-06-18, 01:09:04,VALID,1000.17,VALID,0,VALID,63.1504,VALID,0,VALID,27.1938,VALID,186,VALID,3.45977,
2011-06-18, 01:10:04,VALID,1000.14,VALID,0,VALID,63.1656,VALID,0,VALID,27.2329,VALID,191,VALID,3.40273,
2011-06-18, 01:11:04,VALID,1000.12,VALID,0,VALID,62.5247,VALID,0,VALID,27.2524,VALID,182,VALID,4.32891,
2011-06-18, 01:12:04,VALID,1000.1,VALID,0,VALID,63.0359,VALID,0,VALID,27.2524,VALID,188,VALID,3.63281,
2011-06-18, 01:13:04,VALID,1000.04,VALID,0,VALID,61.6321,VALID,0,VALID,27.2524,VALID,178,VALID,3.27578,
2011-06-18, 01:14:04,VALID,1000.05,VALID,0,VALID,62.3721,VALID,0,VALID,27.2719,VALID,229,VALID,2.65859,
2011-06-18, 01:15:04,VALID,1000.09,VALID,0,VALID,62.4942,VALID,0,VALID,27.2329,VALID,196,VALID,2.44062,
2011-06-18, 01:16:04,VALID,1000.1,VALID,0,VALID,62.334,VALID,0,VALID,27.2329,VALID,185,VALID,2.47734,
2011-06-18, 01:17:04,VALID,1000.09,VALID,0,VALID,62.1738,VALID,0,VALID,27.2349,VALID,201,VALID,3.1832,
2011-06-18, 01:18:04,VALID,1000.13,VALID,0,VALID,62.0136,VALID,0,VALID,27.2329,VALID,192,VALID,3.26797,
2011-06-18, 01:19:04,VALID,1000.17,VALID,0,VALID,61.5481,VALID,0,VALID,27.2719,VALID,190,VALID,2.92578,
2011-06-18, 01:20:04,VALID,1000.15,VALID,0,VALID,61.4337,VALID,0,VALID,27.2719,VALID,207,VALID,3.00625,
2011-06-18, 01:21:04,VALID,1000.12,VALID,0,VALID,60.953,VALID,0,VALID,27.3305,VALID,185,VALID,4.48438,
2011-06-18, 01:22:04,VALID,1000.12,VALID,0,VALID,60.9988,VALID,0,VALID,27.3696,VALID,189,VALID,4.25664,
2011-06-18, 01:23:04,VALID,1000.17,VALID,0,VALID,60.7241,VALID,0,VALID,27.3305,VALID,191,VALID,3.22617,
2011-06-18, 01:24:04,VALID,1000.15,VALID,0,VALID,61.5558,VALID,0,VALID,27.311,VALID,198,VALID,3.36758,
2011-06-18, 01:25:04,VALID,1000.15,VALID,0,VALID,61.2124,VALID,0,VALID,27.2719,VALID,187,VALID,2.35352,
2011-06-18, 01:26:04,VALID,1000.17,VALID,0,VALID,61.098,VALID,0,VALID,27.2719,VALID,209,VALID,2.25859,
2011-06-18, 01:27:04,VALID,1000.18,VALID,0,VALID,61.3269,VALID,0,VALID,27.2719,VALID,204,VALID,2.47578,
2011-06-18, 01:28:04,VALID,1000.18,VALID,0,VALID,61.6321,VALID,0,VALID,27.2524,VALID,192,VALID,2.68984,
2011-06-18, 01:29:04,VALID,1000.15,VALID,0,VALID,61.3193,VALID,0,VALID,27.2133,VALID,195,VALID,2.86797,
2011-06-18, 01:30:04,VALID,1000.17,VALID,0,VALID,61.9601,VALID,0,VALID,27.2133,VALID,214,VALID,2.24805,
2011-06-18, 01:31:04,VALID,1000.19,VALID,0,VALID,61.51,VALID,0,VALID,27.1547,VALID,215,VALID,2.38242,
2011-06-18, 01:32:04,VALID,1000.17,VALID,0,VALID,61.098,VALID,0,VALID,27.1938,VALID,178,VALID,4.88438,
2011-06-18, 01:33:04,VALID,1000.15,VALID,0,VALID,61.2048,VALID,0,VALID,27.2524,VALID,200,VALID,3.38281,
2011-06-18, 01:34:04,VALID,1000.12,VALID,0,VALID,60.953,VALID,0,VALID,27.2719,VALID,213,VALID,3.26445,
2011-06-18, 01:35:04,VALID,1000.14,VALID,0,VALID,61.0598,VALID,0,VALID,27.2524,VALID,229,VALID,1.37891,
2011-06-18, 01:36:04,VALID,1000.11,VALID,0,VALID,61.8533,VALID,0,VALID,27.1938,VALID,215,VALID,1.64688,
2011-06-18, 01:37:04,VALID,1000.16,VALID,0,VALID,61.0827,VALID,0,VALID,27.2133,VALID,187,VALID,4.47383,
2011-06-18, 01:38:04,VALID,1000.15,VALID,0,VALID,61.2887,VALID,0,VALID,27.2329,VALID,189,VALID,3.6375,
2011-06-18, 01:39:04,VALID,1000.16,VALID,0,VALID,61.2201,VALID,0,VALID,27.2133,VALID,185,VALID,3.37812,
2011-06-18, 01:40:04,VALID,1000.12,VALID,0,VALID,60.8539,VALID,0,VALID,27.1743,VALID,205,VALID,2.90664,
2011-06-18, 01:41:04,VALID,1000.11,VALID,0,VALID,60.5487,VALID,0,VALID,27.1743,VALID,197,VALID,3.2375,
2011-06-18, 01:42:04,VALID,1000.11,VALID,0,VALID,60.2511,VALID,0,VALID,27.2329,VALID,186,VALID,4.6,
2011-06-18, 01:43:04,VALID,1000.12,VALID,0,VALID,60.6631,VALID,0,VALID,27.2719,VALID,171,VALID,4.44922,
2011-06-18, 01:44:04,VALID,1000.12,VALID,0,VALID,60.4647,VALID,0,VALID,27.2524,VALID,180,VALID,3.89531,
2011-06-18, 01:45:04,VALID,1000.1,VALID,0,VALID,60.8462,VALID,0,VALID,27.2133,VALID,175,VALID,3.4293,
2011-06-18, 01:46:04,VALID,1000.09,VALID,0,VALID,61.0446,VALID,0,VALID,27.1938,VALID,178,VALID,2.92773,
2011-06-18, 01:47:04,VALID,1000.03,VALID,0,VALID,61.3421,VALID,0,VALID,27.1547,VALID,187,VALID,2.97461,
2011-06-18, 01:48:04,VALID,1000.03,VALID,0,VALID,61.7618,VALID,0,VALID,27.0961,VALID,195,VALID,2.22422,
2011-06-18, 01:49:04,VALID,999.986,VALID,0,VALID,60.9607,VALID,0,VALID,27.0766,VALID,174,VALID,4.04883,
2011-06-18, 01:50:04,VALID,999.978,VALID,0,VALID,60.892,VALID,0,VALID,27.1157,VALID,176,VALID,4.12656,
2011-06-18, 01:51:04,VALID,999.931,VALID,0,VALID,61.098,VALID,0,VALID,27.1157,VALID,170,VALID,4.08437,
2011-06-18, 01:52:04,VALID,999.956,VALID,0,VALID,61.0217,VALID,0,VALID,27.1157,VALID,183,VALID,4.52227,
2011-06-18, 01:53:04,VALID,999.929,VALID,0,VALID,61.2735,VALID,0,VALID,27.1157,VALID,187,VALID,4.92812,
2011-06-18, 01:54:04,VALID,999.92,VALID,0,VALID,61.4261,VALID,0,VALID,27.0766,VALID,183,VALID,3.84375,
2011-06-18, 01:55:04,VALID,999.941,VALID,0,VALID,61.5939,VALID,0,VALID,27.0766,VALID,176,VALID,4.99531,
2011-06-18, 01:56:04,VALID,999.918,VALID,0,VALID,61.6702,VALID,0,VALID,27.0961,VALID,188,VALID,5.00938,
2011-06-18, 01:57:04,VALID,999.907,VALID,0,VALID,61.6092,VALID,0,VALID,27.0571,VALID,172,VALID,4.57969,
2011-06-18, 01:58:04,VALID,999.969,VALID,0,VALID,61.7618,VALID,0,VALID,27.018,VALID,178,VALID,4.80352,
2011-06-18, 01:59:04,VALID,999.952,VALID,0,VALID,62.0059,VALID,0,VALID,27.018,VALID,176,VALID,3.99648,
2011-06-18, 02:00:04,VALID,999.945,VALID,0,VALID,62.2577,VALID,0,VALID,26.9789,VALID,174,VALID,3.96445,
2011-06-18, 02:01:04,VALID,999.965,VALID,0,VALID,62.5171,VALID,0,VALID,26.9594,VALID,185,VALID,3.69375,
2011-06-18, 02:02:04,VALID,999.979,VALID,0,VALID,62.4408,VALID,0,VALID,26.9183,VALID,182,VALID,4.30781,
2011-06-18, 02:03:04,VALID,999.989,VALID,0,VALID,62.6926,VALID,0,VALID,26.9204,VALID,177,VALID,3.77578,
2011-06-18, 02:04:04,VALID,999.952,VALID,0,VALID,62.54,VALID,0,VALID,26.9204,VALID,182,VALID,4.64453,
2011-06-18, 02:05:04,VALID,999.943,VALID,0,VALID,62.746,VALID,0,VALID,26.9204,VALID,184,VALID,3.84258,
2011-06-18, 02:06:04,VALID,999.961,VALID,0,VALID,62.3721,VALID,0,VALID,26.9399,VALID,180,VALID,3.60547,
2011-06-18, 02:07:04,VALID,999.921,VALID,0,VALID,62.3798,VALID,0,VALID,26.9399,VALID,175,VALID,5.73516,
2011-06-18, 02:08:04,VALID,999.912,VALID,0,VALID,62.2501,VALID,0,VALID,26.9399,VALID,171,VALID,4.65469,
2011-06-18, 02:09:04,VALID,999.943,VALID,0,VALID,62.9673,VALID,0,VALID,26.9204,VALID,173,VALID,3.98672,
2011-06-18, 02:10:04,VALID,999.877,VALID,0,VALID,62.2806,VALID,0,VALID,26.9008,VALID,171,VALID,5.44219,
2011-06-18, 02:11:04,VALID,999.87,VALID,0,VALID,61.7465,VALID,0,VALID,26.9574,VALID,178,VALID,6.28047,
2011-06-18, 02:12:04,VALID,999.843,VALID,0,VALID,61.3421,VALID,0,VALID,27.0571,VALID,173,VALID,5.90469,
2011-06-18, 02:13:04,VALID,999.829,VALID,0,VALID,61.6702,VALID,0,VALID,27.0961,VALID,182,VALID,4.82617,
2011-06-18, 02:14:04,VALID,999.853,VALID,0,VALID,61.8076,VALID,0,VALID,27.0571,VALID,182,VALID,6.01797,
2011-06-18, 02:15:04,VALID,999.862,VALID,0,VALID,62.1127,VALID,0,VALID,27.018,VALID,169,VALID,5.51953,
2011-06-18, 02:16:04,VALID,999.867,VALID,0,VALID,62.0517,VALID,0,VALID,26.9789,VALID,171,VALID,5.25391,
2011-06-18, 02:17:04,VALID,999.813,VALID,0,VALID,62.3569,VALID,0,VALID,26.9399,VALID,173,VALID,4.87148,
2011-06-18, 02:18:04,VALID,999.836,VALID,0,VALID,62.5934,VALID,0,VALID,26.9008,VALID,172,VALID,4.02187,
2011-06-18, 02:19:04,VALID,999.797,VALID,0,VALID,61.983,VALID,0,VALID,26.8402,VALID,183,VALID,6.23047,
2011-06-18, 02:20:04,VALID,999.825,VALID,0,VALID,62.334,VALID,0,VALID,26.9204,VALID,177,VALID,3.85859,
2011-06-18, 02:21:04,VALID,999.829,VALID,0,VALID,62.2653,VALID,0,VALID,26.8813,VALID,175,VALID,4.71875,
2011-06-18, 02:22:04,VALID,999.773,VALID,0,VALID,62.0975,VALID,0,VALID,26.8813,VALID,171,VALID,4.80156,
2011-06-18, 02:23:04,VALID,999.797,VALID,0,VALID,62.1967,VALID,0,VALID,26.8597,VALID,171,VALID,5.09062,
2011-06-18, 02:24:04,VALID,999.755,VALID,0,VALID,62.0898,VALID,0,VALID,26.8813,VALID,168,VALID,4.80391,
2011-06-18, 02:25:04,VALID,999.775,VALID,0,VALID,62.0441,VALID,0,VALID,26.8813,VALID,163,VALID,5.52422,
2011-06-18, 02:26:04,VALID,999.787,VALID,0,VALID,61.304,VALID,0,VALID,26.9399,VALID,167,VALID,6.76016,
2011-06-18, 02:27:04,VALID,999.78,VALID,0,VALID,61.4871,VALID,0,VALID,26.9985,VALID,171,VALID,5.78203,
2011-06-18, 02:28:04,VALID,999.807,VALID,0,VALID,61.571,VALID,0,VALID,26.9985,VALID,160,VALID,5.15859,
2011-06-18, 02:29:04,VALID,999.822,VALID,0,VALID,61.5787,VALID,0,VALID,26.9574,VALID,170,VALID,4.14766,
2011-06-18, 02:30:04,VALID,999.795,VALID,0,VALID,61.5329,VALID,0,VALID,26.9985,VALID,176,VALID,4.31133,
2011-06-18, 02:31:04,VALID,999.783,VALID,0,VALID,61.6702,VALID,0,VALID,26.9985,VALID,187,VALID,4.03984,
2011-06-18, 02:32:04,VALID,999.752,VALID,0,VALID,61.6168,VALID,0,VALID,26.9594,VALID,169,VALID,4.17383,
2011-06-18, 02:33:04,VALID,999.762,VALID,0,VALID,61.51,VALID,0,VALID,26.9789,VALID,168,VALID,3.79141,
2011-06-18, 02:34:04,VALID,999.784,VALID,0,VALID,61.7999,VALID,0,VALID,26.9399,VALID,170,VALID,3.78008,
2011-06-18, 02:35:04,VALID,999.715,VALID,0,VALID,61.9601,VALID,0,VALID,26.9204,VALID,178,VALID,4.54805,
2011-06-18, 02:36:04,VALID,999.773,VALID,0,VALID,61.8457,VALID,0,VALID,26.9204,VALID,172,VALID,4.59258,
2011-06-18, 02:37:04,VALID,999.758,VALID,0,VALID,61.5787,VALID,0,VALID,26.9574,VALID,171,VALID,4.32305,
2011-06-18, 02:38:04,VALID,999.752,VALID,0,VALID,61.9067,VALID,0,VALID,26.9594,VALID,170,VALID,3.87773,
2011-06-18, 02:39:04,VALID,999.791,VALID,0,VALID,61.6244,VALID,0,VALID,26.9594,VALID,178,VALID,3.76758,
2011-06-18, 02:40:04,VALID,999.748,VALID,0,VALID,61.9907,VALID,0,VALID,26.9594,VALID,178,VALID,4.45625,
2011-06-18, 02:41:04,VALID,999.76,VALID,0,VALID,62.334,VALID,0,VALID,26.9399,VALID,172,VALID,4.0793,
2011-06-18, 02:42:04,VALID,999.773,VALID,0,VALID,61.922,VALID,0,VALID,26.9789,VALID,185,VALID,5.59375,
2011-06-18, 02:43:04,VALID,999.757,VALID,0,VALID,61.922,VALID,0,VALID,26.9594,VALID,173,VALID,4.15898,
2011-06-18, 02:44:04,VALID,999.791,VALID,0,VALID,62.2119,VALID,0,VALID,26.9204,VALID,182,VALID,4.70156,
2011-06-18, 02:45:04,VALID,999.768,VALID,0,VALID,62.5629,VALID,0,VALID,26.9008,VALID,183,VALID,3.26289,
2011-06-18, 02:46:04,VALID,999.809,VALID,0,VALID,62.2043,VALID,0,VALID,26.8813,VALID,184,VALID,5.50117,
2011-06-18, 02:47:04,VALID,999.789,VALID,0,VALID,62.0059,VALID,0,VALID,26.9594,VALID,188,VALID,5.34883,
2011-06-18, 02:48:04,VALID,999.776,VALID,0,VALID,61.861,VALID,0,VALID,26.9964,VALID,178,VALID,4.52891,
2011-06-18, 02:49:04,VALID,999.792,VALID,0,VALID,62.0517,VALID,0,VALID,27.018,VALID,186,VALID,4.1332,
2011-06-18, 02:50:04,VALID,999.798,VALID,0,VALID,62.0059,VALID,0,VALID,26.9594,VALID,176,VALID,4.99414,
2011-06-18, 02:51:04,VALID,999.771,VALID,0,VALID,62.2119,VALID,0,VALID,26.9594,VALID,183,VALID,4.10313,
2011-06-18, 02:52:04,VALID,999.792,VALID,0,VALID,62.1738,VALID,0,VALID,26.9574,VALID,190,VALID,5.04922,
2011-06-18, 02:53:04,VALID,999.796,VALID,0,VALID,62.1738,VALID,0,VALID,26.9985,VALID,184,VALID,4.4125,
2011-06-18, 02:54:04,VALID,999.785,VALID,0,VALID,62.3111,VALID,0,VALID,26.9574,VALID,180,VALID,3.81953,
2011-06-18, 02:55:04,VALID,999.802,VALID,0,VALID,61.9525,VALID,0,VALID,26.9378,VALID,190,VALID,6.16836,
2011-06-18, 02:56:04,VALID,999.796,VALID,0,VALID,61.5481,VALID,0,VALID,27.016,VALID,187,VALID,5.3918,
2011-06-18, 02:57:04,VALID,999.778,VALID,0,VALID,61.1361,VALID,0,VALID,27.0961,VALID,182,VALID,5.03164,
2011-06-18, 02:58:04,VALID,999.806,VALID,0,VALID,61.4261,VALID,0,VALID,27.0961,VALID,192,VALID,3.64883,
2011-06-18, 02:59:04,VALID,999.819,VALID,0,VALID,61.51,VALID,0,VALID,27.0571,VALID,193,VALID,3.25703,
2011-06-18, 03:00:04,VALID,999.777,VALID,0,VALID,61.6778,VALID,0,VALID,27.0375,VALID,178,VALID,4.37969,
2011-06-18, 03:01:04,VALID,999.802,VALID,0,VALID,61.5787,VALID,0,VALID,26.9789,VALID,184,VALID,3.51992,
2011-06-18, 03:02:04,VALID,999.817,VALID,0,VALID,61.8381,VALID,0,VALID,26.9789,VALID,183,VALID,3.93633,
2011-06-18, 03:03:04,VALID,999.758,VALID,0,VALID,61.4032,VALID,0,VALID,26.9594,VALID,192,VALID,3.2375,
2011-06-18, 03:04:04,VALID,999.813,VALID,0,VALID,61.5176,VALID,0,VALID,26.9399,VALID,182,VALID,3.49258,
2011-06-18, 03:05:04,VALID,999.796,VALID,0,VALID,61.3727,VALID,0,VALID,26.9399,VALID,201,VALID,3.66484,
2011-06-18, 03:06:04,VALID,999.799,VALID,0,VALID,61.7389,VALID,0,VALID,26.9789,VALID,193,VALID,3.16289,
2011-06-18, 03:07:04,VALID,999.745,VALID,0,VALID,61.6168,VALID,0,VALID,26.9594,VALID,199,VALID,2.13438,
2011-06-18, 03:08:04,VALID,999.752,VALID,0,VALID,61.8839,VALID,0,VALID,26.9399,VALID,191,VALID,3.2207,
2011-06-18, 03:09:04,VALID,999.742,VALID,0,VALID,61.7389,VALID,0,VALID,26.981,VALID,196,VALID,3.17383,
2011-06-18, 03:10:04,VALID,999.752,VALID,0,VALID,61.6778,VALID,0,VALID,26.9399,VALID,209,VALID,2.83867,
2011-06-18, 03:11:04,VALID,999.721,VALID,0,VALID,62.2882,VALID,0,VALID,26.9204,VALID,185,VALID,2.84063,
2011-06-18, 03:12:04,VALID,999.734,VALID,0,VALID,62.1204,VALID,0,VALID,26.9008,VALID,185,VALID,3.16992,
2011-06-18, 03:13:04,VALID,999.701,VALID,0,VALID,62.1433,VALID,0,VALID,26.8618,VALID,183,VALID,2.53594,
2011-06-18, 03:14:04,VALID,999.672,VALID,0,VALID,62.5018,VALID,0,VALID,26.8227,VALID,175,VALID,2.68125,
2011-06-18, 03:15:04,VALID,999.693,VALID,0,VALID,62.6239,VALID,0,VALID,26.8032,VALID,175,VALID,2.66445,
2011-06-18, 03:16:04,VALID,999.694,VALID,0,VALID,63.0741,VALID,0,VALID,26.7641,VALID,177,VALID,2.58242,
2011-06-18, 03:17:04,VALID,999.661,VALID,0,VALID,63.6234,VALID,0,VALID,26.7055,VALID,165,VALID,1.59727,
2011-06-18, 03:18:04,VALID,999.687,VALID,0,VALID,63.7455,VALID,0,VALID,26.5884,VALID,183,VALID,2.15195,
2011-06-18, 03:19:04,VALID,999.653,VALID,0,VALID,63.9133,VALID,0,VALID,26.5904,VALID,167,VALID,2.97617,
2011-06-18, 03:20:04,VALID,999.615,VALID,0,VALID,63.6387,VALID,0,VALID,26.6099,VALID,213,VALID,2.48516,
2011-06-18, 03:21:04,VALID,999.621,VALID,0,VALID,63.715,VALID,0,VALID,26.6274,VALID,176,VALID,1.94883,
2011-06-18, 03:22:04,VALID,999.64,VALID,0,VALID,63.8904,VALID,0,VALID,26.5884,VALID,175,VALID,2.21719,
2011-06-18, 03:23:04,VALID,999.629,VALID,0,VALID,64.0278,VALID,0,VALID,26.6274,VALID,167,VALID,2.22422,
2011-06-18, 03:24:04,VALID,999.666,VALID,0,VALID,64.2338,VALID,0,VALID,26.5688,VALID,172,VALID,2.65195,
2011-06-18, 03:25:04,VALID,999.636,VALID,0,VALID,64.4245,VALID,0,VALID,26.5493,VALID,170,VALID,2.25938,
2011-06-18, 03:26:04,VALID,999.658,VALID,0,VALID,64.867,VALID,0,VALID,26.4907,VALID,171,VALID,2.46836,
2011-06-18, 03:27:04,VALID,999.664,VALID,0,VALID,65.3095,VALID,0,VALID,26.3931,VALID,160,VALID,2.07305,
2011-06-18, 03:28:04,VALID,999.623,VALID,0,VALID,65.5537,VALID,0,VALID,26.315,VALID,160,VALID,1.81406,
2011-06-18, 03:29:04,VALID,999.623,VALID,0,VALID,65.2867,VALID,0,VALID,26.3736,VALID,152,VALID,2.59258,
2011-06-18, 03:30:04,VALID,999.599,VALID,0,VALID,65.4774,VALID,0,VALID,26.3736,VALID,153,VALID,1.6418,
2011-06-18, 03:31:04,VALID,999.61,VALID,0,VALID,65.5842,VALID,0,VALID,26.354,VALID,158,VALID,1.5418,
2011-06-18, 03:32:04,VALID,999.607,VALID,0,VALID,65.6147,VALID,0,VALID,26.315,VALID,160,VALID,2.6957,
2011-06-18, 03:33:04,VALID,999.586,VALID,0,VALID,65.5537,VALID,0,VALID,26.3345,VALID,167,VALID,3.21602,
2011-06-18, 03:34:04,VALID,999.568,VALID,0,VALID,65.2714,VALID,0,VALID,26.3736,VALID,166,VALID,2.38867,
2011-06-18, 03:35:04,VALID,999.571,VALID,0,VALID,65.4621,VALID,0,VALID,26.4126,VALID,164,VALID,1.74609,
2011-06-18, 03:36:04,VALID,999.593,VALID,0,VALID,65.8055,VALID,0,VALID,26.3931,VALID,160,VALID,2.16211,
2011-06-18, 03:37:04,VALID,999.534,VALID,0,VALID,65.981,VALID,0,VALID,26.3345,VALID,178,VALID,2.16367,
2011-06-18, 03:38:04,VALID,999.542,VALID,0,VALID,65.218,VALID,0,VALID,26.4517,VALID,166,VALID,3.66016,
2011-06-18, 03:39:04,VALID,999.554,VALID,0,VALID,65.1417,VALID,0,VALID,26.5513,VALID,180,VALID,2.6043,
2011-06-18, 03:40:04,VALID,999.544,VALID,0,VALID,64.5618,VALID,0,VALID,26.6274,VALID,168,VALID,3.48047,
2011-06-18, 03:41:04,VALID,999.53,VALID,0,VALID,64.7068,VALID,0,VALID,26.686,VALID,169,VALID,2.79336,
2011-06-18, 03:42:04,VALID,999.527,VALID,0,VALID,64.5542,VALID,0,VALID,26.7251,VALID,186,VALID,2.60273,
2011-06-18, 03:43:04,VALID,999.568,VALID,0,VALID,64.8975,VALID,0,VALID,26.7055,VALID,167,VALID,2.56914,
2011-06-18, 03:44:04,VALID,999.562,VALID,0,VALID,65.4316,VALID,0,VALID,26.6079,VALID,163,VALID,2.62891,
2011-06-18, 03:45:04,VALID,999.54,VALID,0,VALID,65.691,VALID,0,VALID,26.5298,VALID,166,VALID,2.09961,
2011-06-18, 03:46:04,VALID,999.564,VALID,0,VALID,65.8512,VALID,0,VALID,26.5298,VALID,167,VALID,3.41094,